{"data":{"norad_id":47879,"intl_designator":"2021-021V","name":"STARLINK-2336","alt_names":[],"object_type":"PAYLOAD","status":"ACTIVE","operator":null,"country":"US","launch_date":"2021-03-14","launch_site_code":"AFETR","launch_vehicle":null,"mission":null,"orbit_class":"UNKNOWN","rcs_meters":null,"size_class":null,"mass_kg":null,"dimensions":null,"purposes":["comms"],"wikipedia_slug":null,"has_3d_model":false,"image_url":null,"decayed_at":null,"tle_current":{"epoch":"2026-09-15T23:10:25.752576Z","epoch_age_seconds":420940,"freshness":"STALE","line1":"1 47879U 21021V   26258.96557584  .04476006  12109-4  90731-3 0  9990","line2":"2 47879  53.1358  67.8272 0010809 297.2794  62.7149 16.30367654306056","mean_motion":16.30367654,"eccentricity":0.0010809,"inclination_deg":53.1358,"raan_deg":67.8272,"arg_perigee_deg":297.2794,"mean_anomaly_deg":62.7149,"bstar":0.00090731,"rev_number":30605,"period_min":88.323636479604,"perigee_km":184.45077066389,"apogee_km":198.65312423048,"semimajor_km":6569.6889474472,"source":"CELESTRAK","updated_at":"2026-09-16T09:01:28.352915Z"}}}